#timestamp,LO_Frequency,Hit,StdDev 
1634468415.1,286047000.8,N
1634468416.0,286047000.8,N
1634468435.8,286046999.9,N
1634468455.6,286047000.4,N
1634468475.5,286047000.2,N
1634468495.3,286047001.1,N
1634468515.1,286046998.5,N
1634468535.9,286046998.6,N
1634468555.7,286047000.8,N
1634468575.6,286047000.3,N
1634468595.4,286047000.8,N
1634468615.2,286046999.0,N
1634468635.1,286047001.2,N
1634468636.0,286047001.2,N
1634468655.8,286047001.1,N
1634468675.6,286046997.0,Y
1634468695.5,286046999.6,P
1634468715.3,286046997.7,P
1634468735.2,286046997.1,N
1634468755.9,286046999.0,N
1634468775.7,286046998.2,N
1634468795.6,286046998.5,N
1634468815.4,286046998.5,N
1634468835.2,286046998.4,N
1634468855.1,286046998.3,N
1634468856.0,286046998.3,N
1634468875.8,286047000.8,N
1634468895.7,286046998.5,N
1634468915.5,286046998.9,N
1634468935.3,286046997.2,Y
1634468955.2,286046998.9,P
1634468975.0,286046998.3,P
1634468975.9,286046998.3,P
1634468995.8,286046998.1,Y
1634469015.6,286047000.1,P
1634469035.4,286047002.8,P
1634469055.3,286046999.7,N
1634469075.1,286047002.8,N
1634469095.9,286047000.6,N
1634469115.7,286047001.0,N
1634469135.5,286046998.2,N
1634469155.4,286046998.6,N
1634469175.2,286046998.5,N
1634469195.0,286046999.5,N
1634469195.9,286046999.5,N
1634469215.8,286046998.9,N
1634469235.6,286046999.4,N
1634469255.5,286046998.9,N
1634469275.3,286047001.2,N
1634469295.1,286047001.0,N
1634469315.9,286047000.7,N
1634469335.7,286047000.6,N
1634469355.5,286046999.9,N
1634469375.4,286047000.6,N
1634469395.2,286047000.6,N
1634469415.1,286047000.5,N
1634469416.0,286047000.5,N
1634469435.8,286047000.9,N
1634469455.6,286046998.2,N
1634469475.5,286046998.4,N
1634469495.3,286046999.6,N
1634469515.1,286046996.9,N
1634469535.9,286046997.7,N
1634469555.7,286046995.3,Y
1634469575.6,286046997.1,P
1634469595.4,286046998.9,N
1634469615.2,286046998.8,N
1634469635.1,286046998.2,N
1634469636.0,286046998.2,N
1634469655.8,286046998.5,N
1634469675.7,286047000.4,N
1634469695.5,286047000.3,N
1634469715.3,286047000.0,N
1634469735.2,286047000.1,N
1634469755.0,286046999.9,N
1634469755.9,286046999.9,N
1634469775.8,286047000.6,N
1634469795.6,286046998.3,N
1634469815.4,286046998.1,N
1634469835.3,286046996.8,Y
1634469855.1,286046996.9,P
1634469875.9,286046998.1,N
1634469895.7,286046998.6,N
1634469915.5,286046999.0,N
1634469935.4,286046999.3,N
1634469955.2,286046998.3,N
1634469975.0,286046998.7,N
1634469975.9,286046998.7,N
1634469995.8,286046999.5,N
1634470015.6,286046999.6,N
1634470035.5,286046996.9,Y
1634470055.3,286047000.6,P
1634470075.1,286047002.2,N
1634470095.9,286047002.2,N
1634470115.7,286047002.7,N
1634470135.5,286046998.3,N
1634470155.4,286046998.7,N
1634470175.2,286046999.3,N
1634470195.1,286046998.4,N
1634470196.0,286046998.4,N
1634470215.8,286046998.2,N
1634470235.6,286046998.3,N
1634470255.5,286047000.8,N
1634470275.3,286046998.2,N
1634470295.1,286047000.6,N
1634470315.9,286047000.2,N
1634470335.7,286047000.0,N
1634470355.6,286047001.1,N
1634470375.4,286046998.1,N
1634470395.2,286047001.2,N
1634470415.1,286047002.6,N
1634470416.0,286047002.6,N
1634470435.8,286047002.7,N
1634470455.6,286047000.0,N
1634470475.5,286046998.5,N
1634470495.3,286046999.5,N
1634470515.2,286046996.6,N
1634470535.9,286046998.4,N
1634470555.7,286046999.4,N
1634470575.6,286046997.7,N
1634470595.4,286046997.8,N
1634470615.3,286046998.0,N
1634470635.1,286046997.8,N
1634470636.0,286046997.8,N
1634470655.8,286046997.5,N
1634470675.7,286046995.7,N
1634470695.5,286046995.5,N
1634470715.3,286046995.9,N
1634470735.2,286046993.4,Y
1634470755.0,286046995.0,P
1634470755.9,286046995.0,N
1634470775.8,286046996.5,N
1634470795.6,286046998.3,N
1634470815.4,286046999.2,N
1634470835.3,286046997.0,N
1634470855.1,286046996.9,N
1634470875.8,286046996.8,N
1634470895.7,286046995.0,Y
1634470915.5,286047000.2,P
1634470935.4,286047002.8,N
1634470955.2,286047001.0,N
1634470975.0,286047000.8,N
1634470975.9,286047000.8,N
1634470995.8,286046998.1,N
1634471015.6,286047001.1,N
1634471035.5,286046998.6,N
1634471055.3,286046999.0,N
1634471075.1,286047000.0,N
1634471095.9,286047002.7,N
1634471115.7,286047001.6,N
1634471135.5,286047004.3,N
1634471155.4,286047001.3,N
1634471175.2,286047003.9,N
1634471195.1,286047003.6,N
1634471196.0,286047003.6,N
1634471215.8,286047003.2,N
1634471235.6,286047004.4,N
1634471255.5,286047004.3,N
1634471275.3,286047001.5,N
1634471295.2,286047001.6,N
1634471315.9,286047001.8,N
1634471335.7,286047001.3,N
1634471355.6,286047001.5,N
1634471375.4,286047003.6,N
1634471395.2,286047003.0,N
1634471415.1,286047003.8,N
1634471416.0,286047003.8,N
1634471435.8,286047003.0,N
1634471455.7,286047001.3,N
1634471475.5,286047003.8,N
1634471495.3,286047004.4,N
1634471515.2,286047001.3,N
1634471535.0,286047004.3,N
1634471535.9,286047004.3,N
1634471555.7,286047003.0,N
1634471575.6,286047004.1,N
1634471595.4,286047001.3,N
1634471615.3,286047001.4,N
1634471635.1,286047003.9,Y
1634471636.0,286047003.9,P
1634471655.8,286047000.2,N
1634471675.7,286047002.0,N
1634471695.5,286047003.3,N
1634471715.3,286047002.2,N
1634471735.2,286047002.4,N
1634471755.0,286047002.5,N
1634471755.9,286047002.5,N
1634471775.8,286047000.1,N
1634471795.6,286047002.7,N
1634471815.4,286047001.8,N
1634471835.3,286047001.9,N
1634471855.1,286047001.0,N
1634471875.8,286047000.0,N
1634471895.7,286047000.2,N
1634471915.5,286047000.4,N
1634471935.4,286047001.2,N
1634471955.2,286046999.2,N
1634471975.0,286046998.8,N
1634471975.9,286046998.8,N
1634471995.8,286047000.9,N
